Year,Month,Day,Hour,Minute,Value (Times are PST for temperature in C)
2019,08,05,00,00,18.20
2019,08,05,00,01,18.20
2019,08,05,00,02,18.20
2019,08,05,00,03,18.10
2019,08,05,00,04,18.10
2019,08,05,00,05,17.90
2019,08,05,00,06,17.90
2019,08,05,00,07,17.90
2019,08,05,00,08,17.90
2019,08,05,00,09,17.90
2019,08,05,00,10,17.90
2019,08,05,00,11,17.90
2019,08,05,00,12,17.80
2019,08,05,00,13,17.80
2019,08,05,00,14,17.80
2019,08,05,00,15,17.80
2019,08,05,00,16,17.80
2019,08,05,00,17,17.70
2019,08,05,00,18,17.70
2019,08,05,00,19,17.70
2019,08,05,00,20,17.70
2019,08,05,00,21,17.60
2019,08,05,00,22,17.50
2019,08,05,00,23,17.50
2019,08,05,00,24,17.40
2019,08,05,00,25,17.30
2019,08,05,00,26,17.30
2019,08,05,00,27,17.30
2019,08,05,00,28,17.30
2019,08,05,00,29,17.20
2019,08,05,00,30,17.20
2019,08,05,00,32,17.20
2019,08,05,00,33,17.10
2019,08,05,00,34,17.10
2019,08,05,00,35,17.00
2019,08,05,00,36,17.00
2019,08,05,00,37,16.90
2019,08,05,00,38,16.90
2019,08,05,00,39,16.90
2019,08,05,00,40,16.90
2019,08,05,00,41,16.80
2019,08,05,00,42,16.80
2019,08,05,00,43,16.80
2019,08,05,00,44,16.80
2019,08,05,00,45,16.80
2019,08,05,00,46,16.80
2019,08,05,00,47,16.70
2019,08,05,00,48,16.70
2019,08,05,00,49,16.70
2019,08,05,00,50,16.60
2019,08,05,00,51,16.40
2019,08,05,00,52,16.40
2019,08,05,00,53,16.30
2019,08,05,00,54,16.30
2019,08,05,00,55,16.20
2019,08,05,00,56,16.10
2019,08,05,00,57,16.10
2019,08,05,00,58,16.10
2019,08,05,00,59,15.90
2019,08,05,01,00,15.90
2019,08,05,01,01,15.80
2019,08,05,01,02,15.80
2019,08,05,01,03,15.80
2019,08,05,01,04,15.80
2019,08,05,01,05,15.80
2019,08,05,01,06,15.80
2019,08,05,01,07,15.70
2019,08,05,01,08,15.70
2019,08,05,01,09,15.70
2019,08,05,01,10,15.70
2019,08,05,01,11,15.70
2019,08,05,01,12,15.70
2019,08,05,01,13,15.70
2019,08,05,01,14,15.70
2019,08,05,01,15,15.70
2019,08,05,01,16,15.70
2019,08,05,01,17,15.70
2019,08,05,01,18,15.70
2019,08,05,01,19,15.80
2019,08,05,01,20,15.80
2019,08,05,01,21,15.80
2019,08,05,01,22,15.80
2019,08,05,01,23,15.80
2019,08,05,01,24,15.80
2019,08,05,01,25,15.80
2019,08,05,01,26,15.80
2019,08,05,01,27,15.80
2019,08,05,01,28,15.80
2019,08,05,01,29,15.80
2019,08,05,01,30,15.90
2019,08,05,01,31,15.90
2019,08,05,01,32,15.90
2019,08,05,01,33,15.90
2019,08,05,01,34,15.90
2019,08,05,01,35,15.90
2019,08,05,01,36,15.90
2019,08,05,01,37,15.90
2019,08,05,01,38,15.90
2019,08,05,01,39,15.80
2019,08,05,01,40,15.80
2019,08,05,01,41,15.80
2019,08,05,01,42,15.80
2019,08,05,01,43,15.80
2019,08,05,01,44,15.80
2019,08,05,01,45,15.80
2019,08,05,01,46,15.70
2019,08,05,01,47,15.70
2019,08,05,01,48,15.70
2019,08,05,01,49,15.60
2019,08,05,01,50,15.60
2019,08,05,01,51,15.60
2019,08,05,01,52,15.60
2019,08,05,01,53,15.50
2019,08,05,01,54,15.50
2019,08,05,01,55,15.50
2019,08,05,01,56,15.50
2019,08,05,01,57,15.50
2019,08,05,01,58,15.50
2019,08,05,01,59,15.50
2019,08,05,02,00,15.40
2019,08,05,02,01,15.40
2019,08,05,02,02,15.50
2019,08,05,02,03,15.50
2019,08,05,02,04,15.50
2019,08,05,02,05,15.50
2019,08,05,02,06,15.50
2019,08,05,02,07,15.50
2019,08,05,02,08,15.50
2019,08,05,02,09,15.50
2019,08,05,02,10,15.50
2019,08,05,02,11,15.50
2019,08,05,02,12,15.50
2019,08,05,02,13,15.50
2019,08,05,02,14,15.50
2019,08,05,02,15,15.50
2019,08,05,02,16,15.50
2019,08,05,02,17,15.50
2019,08,05,02,18,15.50
2019,08,05,02,19,15.50
2019,08,05,02,20,15.50
2019,08,05,02,21,15.50
2019,08,05,02,22,15.50
2019,08,05,02,23,15.50
2019,08,05,02,24,15.40
2019,08,05,02,25,15.40
2019,08,05,02,26,15.40
2019,08,05,02,27,15.40
2019,08,05,02,28,15.40
2019,08,05,02,29,15.30
2019,08,05,02,30,15.30
2019,08,05,02,32,15.30
2019,08,05,02,33,15.20
2019,08,05,02,34,15.20
2019,08,05,02,36,15.00
2019,08,05,02,37,15.00
2019,08,05,02,39,14.90
2019,08,05,02,41,14.80
2019,08,05,02,42,14.80
2019,08,05,02,43,14.80
2019,08,05,02,44,14.80
2019,08,05,02,46,14.70
2019,08,05,02,47,14.70
2019,08,05,02,48,14.70
2019,08,05,02,49,14.60
2019,08,05,02,51,14.60
2019,08,05,02,52,14.60
2019,08,05,02,53,14.60
2019,08,05,02,54,14.50
2019,08,05,02,56,14.50
2019,08,05,02,57,14.40
2019,08,05,02,58,14.40
2019,08,05,02,59,14.40
2019,08,05,03,01,14.30
2019,08,05,03,02,14.30
2019,08,05,03,03,14.30
2019,08,05,03,04,14.30
2019,08,05,03,06,14.20
2019,08,05,03,07,14.20
2019,08,05,03,08,14.20
2019,08,05,03,09,14.20
2019,08,05,03,11,14.20
2019,08,05,03,12,14.20
2019,08,05,03,13,14.20
2019,08,05,03,14,14.20
2019,08,05,03,16,14.20
2019,08,05,03,17,14.10
2019,08,05,03,18,14.10
2019,08,05,03,19,14.10
2019,08,05,03,21,14.10
2019,08,05,03,22,14.10
2019,08,05,03,23,14.10
2019,08,05,03,24,14.10
2019,08,05,03,26,14.00
2019,08,05,03,27,14.00
2019,08,05,03,28,14.00
2019,08,05,03,29,14.00
2019,08,05,03,31,14.00
2019,08,05,03,32,14.00
2019,08,05,03,33,14.00
2019,08,05,03,34,14.00
2019,08,05,03,36,13.90
2019,08,05,03,37,13.90
2019,08,05,03,38,13.90
2019,08,05,03,39,13.90
2019,08,05,03,41,13.90
2019,08,05,03,42,13.90
2019,08,05,03,43,13.90
2019,08,05,03,44,13.80
2019,08,05,03,46,13.80
2019,08,05,03,47,13.80
2019,08,05,03,48,13.80
2019,08,05,03,49,13.80
2019,08,05,03,51,13.70
2019,08,05,03,52,13.70
2019,08,05,03,53,13.70
2019,08,05,03,54,13.70
2019,08,05,03,56,13.70
2019,08,05,03,57,13.70
2019,08,05,03,58,13.70
2019,08,05,03,59,13.70
2019,08,05,04,01,13.70
2019,08,05,04,02,13.70
2019,08,05,04,03,13.70
2019,08,05,04,04,13.70
2019,08,05,04,06,13.70
2019,08,05,04,07,13.70
2019,08,05,04,08,13.70
2019,08,05,04,09,13.70
2019,08,05,04,10,13.70
2019,08,05,04,11,13.70
2019,08,05,04,12,13.70
2019,08,05,04,13,13.70
2019,08,05,04,14,13.70
2019,08,05,04,15,13.70
2019,08,05,04,16,13.70
2019,08,05,04,17,13.60
2019,08,05,04,18,13.60
2019,08,05,04,19,13.60
2019,08,05,04,20,13.50
2019,08,05,04,21,13.50
2019,08,05,04,22,13.50
2019,08,05,04,23,13.40
2019,08,05,04,24,13.40
2019,08,05,04,25,13.40
2019,08,05,04,26,13.40
2019,08,05,04,27,13.40
2019,08,05,04,28,13.40
2019,08,05,04,29,13.40
2019,08,05,04,30,13.30
2019,08,05,04,31,13.30
2019,08,05,04,32,13.30
2019,08,05,04,33,13.30
2019,08,05,04,34,13.30
2019,08,05,04,35,13.30
2019,08,05,04,36,13.30
2019,08,05,04,37,13.30
2019,08,05,04,38,13.30
2019,08,05,04,39,13.30
2019,08,05,04,40,13.30
2019,08,05,04,41,13.30
2019,08,05,04,42,13.30
2019,08,05,04,43,13.30
2019,08,05,04,44,13.30
2019,08,05,04,45,13.30
2019,08,05,04,46,13.30
2019,08,05,04,47,13.30
2019,08,05,04,48,13.30
2019,08,05,04,49,13.30
2019,08,05,04,50,13.30
2019,08,05,04,51,13.30
2019,08,05,04,52,13.30
2019,08,05,04,53,13.30
2019,08,05,04,54,13.30
2019,08,05,04,55,13.30
2019,08,05,04,56,13.30
2019,08,05,04,57,13.30
2019,08,05,04,58,13.30
2019,08,05,04,59,13.30
2019,08,05,05,00,13.30
2019,08,05,05,01,13.20
2019,08,05,05,02,13.20
2019,08,05,05,03,13.20
2019,08,05,05,04,13.20
2019,08,05,05,05,13.20
2019,08,05,05,06,13.20
2019,08,05,05,07,13.20
2019,08,05,05,08,13.20
2019,08,05,05,09,13.20
2019,08,05,05,10,13.20
2019,08,05,05,11,13.20
2019,08,05,05,12,13.20
2019,08,05,05,13,13.10
2019,08,05,05,14,13.10
2019,08,05,05,15,13.10
2019,08,05,05,16,13.10
2019,08,05,05,17,13.10
2019,08,05,05,18,13.10
2019,08,05,05,19,13.10
2019,08,05,05,20,13.10
2019,08,05,05,21,13.10
2019,08,05,05,22,13.10
2019,08,05,05,23,13.00
2019,08,05,05,24,13.00
2019,08,05,05,25,13.00
2019,08,05,05,26,13.00
2019,08,05,05,27,13.00
2019,08,05,05,28,12.90
2019,08,05,05,29,12.90
2019,08,05,05,30,12.90
2019,08,05,05,31,12.90
2019,08,05,05,32,12.90
2019,08,05,05,33,12.90
2019,08,05,05,34,12.80
2019,08,05,05,35,12.80
2019,08,05,05,36,12.80
2019,08,05,05,37,12.80
2019,08,05,05,38,12.80
2019,08,05,05,39,12.80
2019,08,05,05,40,12.80
2019,08,05,05,41,12.80
2019,08,05,05,42,12.80
2019,08,05,05,43,12.80
2019,08,05,05,44,12.80
2019,08,05,05,45,12.80
2019,08,05,05,46,12.80
2019,08,05,05,47,12.80
2019,08,05,05,48,12.80
2019,08,05,05,49,12.80
2019,08,05,05,50,12.80
2019,08,05,05,51,12.80
2019,08,05,05,52,12.80
2019,08,05,05,53,12.80
2019,08,05,05,54,12.80
2019,08,05,05,55,12.80
2019,08,05,05,56,12.80
2019,08,05,05,57,12.80
2019,08,05,05,58,12.80
2019,08,05,05,59,12.80
2019,08,05,06,00,12.80
2019,08,05,06,01,12.80
2019,08,05,06,02,12.70
2019,08,05,06,03,12.70
2019,08,05,06,04,12.70
2019,08,05,06,05,12.70
2019,08,05,06,06,12.70
2019,08,05,06,07,12.70
2019,08,05,06,08,12.70
2019,08,05,06,09,12.70
2019,08,05,06,10,12.70
2019,08,05,06,11,12.70
2019,08,05,06,12,12.70
2019,08,05,06,13,12.70
2019,08,05,06,14,12.70
2019,08,05,06,15,12.70
2019,08,05,06,16,12.80
2019,08,05,06,17,12.80
2019,08,05,06,18,12.80
2019,08,05,06,19,12.80
2019,08,05,06,20,12.80
2019,08,05,06,21,12.80
2019,08,05,06,22,12.80
2019,08,05,06,23,12.80
2019,08,05,06,24,12.80
2019,08,05,06,25,12.80
2019,08,05,06,26,12.80
2019,08,05,06,27,12.80
2019,08,05,06,28,12.80
2019,08,05,06,29,12.80
2019,08,05,06,30,12.80
2019,08,05,06,32,12.80
2019,08,05,06,33,12.90
2019,08,05,06,34,12.90
2019,08,05,06,35,12.90
2019,08,05,06,36,12.90
2019,08,05,06,37,12.90
2019,08,05,06,38,12.90
2019,08,05,06,39,13.00
2019,08,05,06,40,13.00
2019,08,05,06,41,13.00
2019,08,05,06,42,13.00
2019,08,05,06,43,13.10
2019,08,05,06,44,13.10
2019,08,05,06,45,13.10
2019,08,05,06,46,13.10
2019,08,05,06,47,13.10
2019,08,05,06,48,13.20
2019,08,05,06,49,13.20
2019,08,05,06,50,13.20
2019,08,05,06,51,13.30
2019,08,05,06,52,13.30
2019,08,05,06,53,13.30
2019,08,05,06,54,13.30
2019,08,05,06,55,13.30
2019,08,05,06,56,13.30
2019,08,05,06,57,13.30
2019,08,05,06,58,13.40
2019,08,05,06,59,13.40
2019,08,05,07,00,13.50
2019,08,05,07,01,13.50
2019,08,05,07,02,13.50
2019,08,05,07,03,13.60
2019,08,05,07,04,13.60
2019,08,05,07,05,13.70
2019,08,05,07,06,13.70
2019,08,05,07,07,13.70
2019,08,05,07,08,13.70
2019,08,05,07,09,13.70
2019,08,05,07,10,13.80
2019,08,05,07,11,13.80
2019,08,05,07,12,13.90
2019,08,05,07,13,13.90
2019,08,05,07,14,13.90
2019,08,05,07,15,14.00
2019,08,05,07,16,14.00
2019,08,05,07,17,14.00
2019,08,05,07,18,14.00
2019,08,05,07,19,14.10
2019,08,05,07,20,14.10
2019,08,05,07,21,14.10
2019,08,05,07,22,14.10
2019,08,05,07,23,14.10
2019,08,05,07,24,14.10
2019,08,05,07,25,14.10
2019,08,05,07,26,14.10
2019,08,05,07,27,14.20
2019,08,05,07,28,14.20
2019,08,05,07,29,14.20
2019,08,05,07,30,14.20
2019,08,05,07,31,14.20
2019,08,05,07,33,14.20
2019,08,05,07,34,14.20
2019,08,05,07,35,14.20
2019,08,05,07,37,14.20
2019,08,05,07,38,14.30
2019,08,05,07,39,14.30
2019,08,05,07,41,14.30
2019,08,05,07,42,14.30
2019,08,05,07,43,14.30
2019,08,05,07,44,14.30
2019,08,05,07,46,14.40
2019,08,05,07,47,14.40
2019,08,05,07,48,14.40
2019,08,05,07,49,14.40
2019,08,05,07,51,14.40
2019,08,05,07,52,14.40
2019,08,05,07,53,14.40
2019,08,05,07,54,14.50
2019,08,05,07,56,14.50
2019,08,05,07,57,14.50
2019,08,05,07,58,14.50
2019,08,05,07,59,14.60
2019,08,05,08,01,14.60
2019,08,05,08,02,14.60
2019,08,05,08,03,14.70
2019,08,05,08,04,14.70
2019,08,05,08,06,14.70
2019,08,05,08,07,14.70
2019,08,05,08,08,14.80
2019,08,05,08,09,14.80
2019,08,05,08,11,14.80
2019,08,05,08,12,14.80
2019,08,05,08,13,14.80
2019,08,05,08,14,14.80
2019,08,05,08,16,14.80
2019,08,05,08,17,14.80
2019,08,05,08,18,14.90
2019,08,05,08,19,14.90
2019,08,05,08,21,14.90
2019,08,05,08,22,14.90
2019,08,05,08,23,14.90
2019,08,05,08,24,14.90
2019,08,05,08,26,14.90
2019,08,05,08,27,14.90
2019,08,05,08,28,14.80
2019,08,05,08,29,14.80
2019,08,05,08,31,14.80
2019,08,05,08,32,14.80
2019,08,05,08,33,14.80
2019,08,05,08,34,14.80
2019,08,05,08,36,14.80
2019,08,05,08,37,14.80
2019,08,05,08,38,14.80
2019,08,05,08,39,14.80
2019,08,05,08,41,14.80
2019,08,05,08,42,14.90
2019,08,05,08,43,14.90
2019,08,05,08,44,15.00
2019,08,05,08,46,15.10
2019,08,05,08,47,15.20
2019,08,05,08,48,15.30
2019,08,05,08,49,15.30
2019,08,05,08,51,15.40
2019,08,05,08,52,15.50
2019,08,05,08,53,15.50
2019,08,05,08,54,15.60
2019,08,05,08,56,15.70
2019,08,05,08,57,15.80
2019,08,05,08,58,15.80
2019,08,05,08,59,15.80
2019,08,05,09,01,15.80
2019,08,05,09,02,15.80
2019,08,05,09,03,15.80
2019,08,05,09,04,15.80
2019,08,05,09,06,15.70
2019,08,05,09,07,15.70
2019,08,05,09,08,15.70
2019,08,05,09,09,15.80
2019,08,05,09,11,15.80
2019,08,05,09,12,15.80
2019,08,05,09,13,15.80
2019,08,05,09,14,15.80
2019,08,05,09,15,15.90
2019,08,05,09,16,16.10
2019,08,05,09,17,16.10
2019,08,05,09,18,16.30
2019,08,05,09,19,16.40
2019,08,05,09,20,16.40
2019,08,05,09,21,16.40
2019,08,05,09,22,16.60
2019,08,05,09,23,16.60
2019,08,05,09,24,16.70
2019,08,05,09,25,16.70
2019,08,05,09,26,16.80
2019,08,05,09,27,16.90
2019,08,05,09,28,17.00
2019,08,05,09,29,17.10
2019,08,05,09,30,17.20
2019,08,05,09,31,17.30
2019,08,05,09,32,17.30
2019,08,05,09,33,17.40
2019,08,05,09,34,17.50
2019,08,05,09,35,17.60
2019,08,05,09,36,17.70
2019,08,05,09,37,17.80
2019,08,05,09,38,17.90
2019,08,05,09,39,18.10
2019,08,05,09,40,18.20
2019,08,05,09,41,18.20
2019,08,05,09,42,18.30
2019,08,05,09,43,18.40
2019,08,05,09,44,18.50
2019,08,05,09,45,18.60
2019,08,05,09,46,18.70
2019,08,05,09,47,18.70
2019,08,05,09,48,18.70
2019,08,05,09,49,18.70
2019,08,05,09,50,18.60
2019,08,05,09,51,18.60
2019,08,05,09,52,18.60
2019,08,05,09,53,18.60
2019,08,05,09,54,18.60
2019,08,05,09,55,18.60
2019,08,05,09,56,18.60
2019,08,05,09,57,18.60
2019,08,05,09,58,18.70
2019,08,05,09,59,18.70
2019,08,05,10,00,18.80
2019,08,05,10,01,18.90
2019,08,05,10,02,18.90
2019,08,05,10,03,19.10
2019,08,05,10,04,19.10
2019,08,05,10,05,19.10
2019,08,05,10,06,19.20
2019,08,05,10,07,19.20
2019,08,05,10,08,19.40
2019,08,05,10,09,19.40
2019,08,05,10,10,19.50
2019,08,05,10,11,19.60
2019,08,05,10,12,19.70
2019,08,05,10,13,19.90
2019,08,05,10,14,19.90
2019,08,05,10,15,20.10
2019,08,05,10,16,20.20
2019,08,05,10,17,20.20
2019,08,05,10,18,20.40
2019,08,05,10,19,20.50
2019,08,05,10,20,20.60
2019,08,05,10,21,20.70
2019,08,05,10,22,20.90
2019,08,05,10,23,21.10
2019,08,05,10,24,21.20
2019,08,05,10,25,21.30
2019,08,05,10,26,21.40
2019,08,05,10,27,21.60
2019,08,05,10,28,21.60
2019,08,05,10,29,21.70
2019,08,05,10,30,21.80
2019,08,05,10,31,21.90
2019,08,05,10,32,21.90
2019,08,05,10,33,22.00
2019,08,05,10,34,21.90
2019,08,05,10,35,21.90
2019,08,05,10,36,21.80
2019,08,05,10,37,21.80
2019,08,05,10,38,21.80
2019,08,05,10,39,21.80
2019,08,05,10,40,21.80
2019,08,05,10,41,21.80
2019,08,05,10,42,21.80
2019,08,05,10,43,21.80
2019,08,05,10,44,21.90
2019,08,05,10,45,21.90
2019,08,05,10,46,21.90
2019,08,05,10,47,21.90
2019,08,05,10,48,22.00
2019,08,05,10,49,22.00
2019,08,05,10,50,22.00
2019,08,05,10,51,22.00
2019,08,05,10,52,22.00
2019,08,05,10,53,22.10
2019,08,05,10,54,22.10
2019,08,05,10,55,22.20
2019,08,05,10,56,22.30
2019,08,05,10,57,22.40
2019,08,05,10,58,22.50
2019,08,05,10,59,22.60
2019,08,05,11,00,22.70
2019,08,05,11,01,22.80
2019,08,05,11,02,22.90
2019,08,05,11,03,23.10
2019,08,05,11,04,23.20
2019,08,05,11,05,23.30
2019,08,05,11,06,23.30
2019,08,05,11,07,23.30
2019,08,05,11,08,23.30
2019,08,05,11,09,23.30
2019,08,05,11,10,23.30
2019,08,05,11,11,23.30
2019,08,05,11,12,23.30
2019,08,05,11,13,23.30
2019,08,05,11,14,23.30
2019,08,05,11,15,23.30
2019,08,05,11,16,23.20
2019,08,05,11,17,23.20
2019,08,05,11,18,23.20
2019,08,05,11,19,23.30
2019,08,05,11,20,23.30
2019,08,05,11,21,23.30
2019,08,05,11,22,23.30
2019,08,05,11,23,23.30
2019,08,05,11,24,23.30
2019,08,05,11,25,23.40
2019,08,05,11,26,23.40
2019,08,05,11,27,23.60
2019,08,05,11,28,23.70
2019,08,05,11,29,23.70
2019,08,05,11,30,23.70
2019,08,05,11,31,23.70
2019,08,05,11,32,23.70
2019,08,05,11,33,23.70
2019,08,05,11,34,23.70
2019,08,05,11,35,23.70
2019,08,05,11,36,23.70
2019,08,05,11,37,23.70
2019,08,05,11,38,23.70
2019,08,05,11,39,23.70
2019,08,05,11,40,23.70
2019,08,05,11,41,23.60
2019,08,05,11,42,23.60
2019,08,05,11,43,23.60
2019,08,05,11,44,23.60
2019,08,05,11,45,23.60
2019,08,05,11,46,23.60
2019,08,05,11,47,23.60
2019,08,05,11,48,23.60
2019,08,05,11,49,23.60
2019,08,05,11,50,23.70
2019,08,05,11,51,23.70
2019,08,05,11,52,23.70
2019,08,05,11,53,23.70
2019,08,05,11,54,23.60
2019,08,05,11,55,23.60
2019,08,05,11,56,23.30
2019,08,05,11,57,23.20
2019,08,05,11,58,23.10
2019,08,05,11,59,22.90
2019,08,05,12,00,22.80
2019,08,05,12,01,22.70
2019,08,05,12,02,22.60
2019,08,05,12,03,22.50
2019,08,05,12,04,22.30
2019,08,05,12,05,22.10
2019,08,05,12,06,22.00
2019,08,05,12,07,21.80
2019,08,05,12,08,21.70
2019,08,05,12,09,21.60
2019,08,05,12,10,21.60
2019,08,05,12,11,21.40
2019,08,05,12,12,21.40
2019,08,05,12,13,21.30
2019,08,05,12,14,21.30
2019,08,05,12,15,21.30
2019,08,05,12,16,21.30
2019,08,05,12,17,21.30
2019,08,05,12,18,21.30
2019,08,05,12,19,21.30
2019,08,05,12,20,21.40
2019,08,05,12,21,21.60
2019,08,05,12,22,21.60
2019,08,05,12,23,21.60
2019,08,05,12,24,21.60
2019,08,05,12,25,21.70
2019,08,05,12,26,21.80
2019,08,05,12,27,21.90
2019,08,05,12,28,21.90
2019,08,05,12,29,21.90
2019,08,05,12,30,22.00
2019,08,05,12,32,22.00
2019,08,05,12,33,22.00
2019,08,05,12,34,22.00
2019,08,05,12,35,22.00
2019,08,05,12,37,22.00
2019,08,05,12,38,22.00
2019,08,05,12,39,22.00
2019,08,05,12,41,22.00
2019,08,05,12,42,22.00
2019,08,05,12,43,22.00
2019,08,05,12,44,22.10
2019,08,05,12,46,22.10
2019,08,05,12,47,22.20
2019,08,05,12,48,22.20
2019,08,05,12,49,22.20
2019,08,05,12,51,22.20
2019,08,05,12,52,22.20
2019,08,05,12,53,22.10
2019,08,05,12,54,22.10
2019,08,05,12,56,21.90
2019,08,05,12,57,21.80
2019,08,05,12,58,21.70
2019,08,05,12,59,21.70
2019,08,05,13,01,21.60
2019,08,05,13,02,21.40
2019,08,05,13,03,21.30
2019,08,05,13,04,21.20
2019,08,05,13,06,21.00
2019,08,05,13,07,20.90
2019,08,05,13,08,20.90
2019,08,05,13,09,20.90
2019,08,05,13,11,20.90
2019,08,05,13,12,20.90
2019,08,05,13,13,20.90
2019,08,05,13,14,20.90
2019,08,05,13,16,20.60
2019,08,05,13,17,20.50
2019,08,05,13,18,20.30
2019,08,05,13,19,20.20
2019,08,05,13,21,20.10
2019,08,05,13,22,19.90
2019,08,05,13,23,19.90
2019,08,05,13,24,19.80
2019,08,05,13,26,19.60
2019,08,05,13,27,19.60
2019,08,05,13,28,19.50
2019,08,05,13,29,19.50
2019,08,05,13,31,19.50
2019,08,05,13,32,19.50
2019,08,05,13,33,19.50
2019,08,05,13,34,19.50
2019,08,05,13,36,19.60
2019,08,05,13,37,19.60
2019,08,05,13,38,19.60
2019,08,05,13,39,19.60
2019,08,05,13,41,19.70
2019,08,05,13,42,19.80
2019,08,05,13,43,19.80
2019,08,05,13,44,19.80
2019,08,05,13,46,19.80
2019,08,05,13,47,19.80
2019,08,05,13,48,19.70
2019,08,05,13,49,19.70
2019,08,05,13,51,19.60
2019,08,05,13,52,19.50
2019,08,05,13,53,19.50
2019,08,05,13,54,19.40
2019,08,05,13,56,19.30
2019,08,05,13,57,19.30
2019,08,05,13,58,19.20
2019,08,05,13,59,19.20
2019,08,05,14,01,19.10
2019,08,05,14,02,19.10
2019,08,05,14,03,19.10
2019,08,05,14,04,19.10
2019,08,05,14,06,19.10
2019,08,05,14,07,18.90
2019,08,05,14,08,18.90
2019,08,05,14,09,18.90
2019,08,05,14,10,18.90
2019,08,05,14,11,18.90
2019,08,05,14,12,18.80
2019,08,05,14,13,18.80
2019,08,05,14,14,18.70
2019,08,05,14,15,18.70
2019,08,05,14,16,18.70
2019,08,05,14,17,18.70
2019,08,05,14,18,18.80
2019,08,05,14,19,18.70
2019,08,05,14,20,18.70
2019,08,05,14,21,18.70
2019,08,05,14,22,18.70
2019,08,05,14,23,18.60
2019,08,05,14,24,18.50
2019,08,05,14,25,18.40
2019,08,05,14,26,18.40
2019,08,05,14,27,18.40
2019,08,05,14,28,18.40
2019,08,05,14,29,18.40
2019,08,05,14,30,18.40
2019,08,05,14,31,18.40
2019,08,05,14,32,18.40
2019,08,05,14,33,18.30
2019,08,05,14,34,18.30
2019,08,05,14,35,18.40
2019,08,05,14,36,18.40
2019,08,05,14,37,18.50
2019,08,05,14,38,18.60
2019,08,05,14,39,18.60
2019,08,05,14,40,18.70
2019,08,05,14,41,18.80
2019,08,05,14,42,18.80
2019,08,05,14,43,18.90
2019,08,05,14,44,18.90
2019,08,05,14,45,18.90
2019,08,05,14,46,19.10
2019,08,05,14,47,19.20
2019,08,05,14,48,19.30
2019,08,05,14,49,19.40
2019,08,05,14,50,19.40
2019,08,05,14,51,19.20
2019,08,05,14,52,19.10
2019,08,05,14,53,19.10
2019,08,05,14,54,19.10
2019,08,05,14,55,19.10
2019,08,05,14,56,19.10
2019,08,05,14,57,19.10
2019,08,05,14,58,19.10
2019,08,05,14,59,19.10
2019,08,05,15,00,19.10
2019,08,05,15,01,19.10
2019,08,05,15,02,19.10
2019,08,05,15,03,19.10
2019,08,05,15,04,19.10
2019,08,05,15,05,19.10
2019,08,05,15,06,19.10
2019,08,05,15,07,19.10
2019,08,05,15,08,19.20
2019,08,05,15,09,19.20
2019,08,05,15,10,19.20
2019,08,05,15,11,19.20
2019,08,05,15,12,19.20
2019,08,05,15,13,19.20
2019,08,05,15,14,19.30
2019,08,05,15,15,19.40
2019,08,05,15,16,19.50
2019,08,05,15,17,19.50
2019,08,05,15,18,19.60
2019,08,05,15,19,19.70
2019,08,05,15,20,19.80
2019,08,05,15,21,19.80
2019,08,05,15,22,19.90
2019,08,05,15,23,19.90
2019,08,05,15,24,20.10
2019,08,05,15,25,20.10
2019,08,05,15,26,20.20
2019,08,05,15,27,20.20
2019,08,05,15,28,20.20
2019,08,05,15,29,20.20
2019,08,05,15,30,20.30
2019,08,05,15,31,20.30
2019,08,05,15,32,20.30
2019,08,05,15,33,20.40
2019,08,05,15,34,20.50
2019,08,05,15,35,20.60
2019,08,05,15,36,20.80
2019,08,05,15,37,20.90
2019,08,05,15,38,21.00
2019,08,05,15,39,21.20
2019,08,05,15,40,21.30
2019,08,05,15,41,21.60
2019,08,05,15,42,21.60
2019,08,05,15,43,21.80
2019,08,05,15,44,21.90
2019,08,05,15,45,22.00
2019,08,05,15,46,22.10
2019,08,05,15,47,22.20
2019,08,05,15,48,22.30
2019,08,05,15,49,22.40
2019,08,05,15,50,22.50
2019,08,05,15,51,22.60
2019,08,05,15,52,22.70
2019,08,05,15,53,22.80
2019,08,05,15,54,22.90
2019,08,05,15,55,22.90
2019,08,05,15,56,22.90
2019,08,05,15,57,22.80
2019,08,05,15,58,22.80
2019,08,05,15,59,22.70
2019,08,05,16,00,22.60
2019,08,05,16,01,22.50
2019,08,05,16,02,22.40
2019,08,05,16,03,22.30
2019,08,05,16,04,22.20
2019,08,05,16,05,22.10
2019,08,05,16,06,22.10
2019,08,05,16,07,22.10
2019,08,05,16,08,22.10
2019,08,05,16,09,22.20
2019,08,05,16,10,22.30
2019,08,05,16,11,22.40
2019,08,05,16,12,22.50
2019,08,05,16,13,22.60
2019,08,05,16,14,22.70
2019,08,05,16,15,22.80
2019,08,05,16,16,22.90
2019,08,05,16,17,22.90
2019,08,05,16,18,22.90
2019,08,05,16,19,22.90
2019,08,05,16,20,22.90
2019,08,05,16,21,22.90
2019,08,05,16,22,22.90
2019,08,05,16,23,22.90
2019,08,05,16,24,22.90
2019,08,05,16,25,22.90
2019,08,05,16,26,22.90
2019,08,05,16,27,22.90
2019,08,05,16,28,22.90
2019,08,05,16,29,22.90
2019,08,05,16,30,22.90
2019,08,05,16,31,22.90
2019,08,05,16,32,23.10
2019,08,05,16,33,23.20
2019,08,05,16,34,23.30
2019,08,05,16,35,23.30
2019,08,05,16,36,23.40
2019,08,05,16,37,23.60
2019,08,05,16,38,23.60
2019,08,05,16,39,23.70
2019,08,05,16,40,23.70
2019,08,05,16,41,23.90
2019,08,05,16,42,24.10
2019,08,05,16,43,24.10
2019,08,05,16,44,24.20
2019,08,05,16,45,24.30
2019,08,05,16,46,24.40
2019,08,05,16,47,24.50
2019,08,05,16,48,24.60
2019,08,05,16,49,24.70
2019,08,05,16,50,24.80
2019,08,05,16,51,24.80
2019,08,05,16,52,24.90
2019,08,05,16,53,24.90
2019,08,05,16,54,24.90
2019,08,05,16,55,25.00
2019,08,05,16,56,25.00
2019,08,05,16,57,25.10
2019,08,05,16,58,25.10
2019,08,05,16,59,25.10
2019,08,05,17,00,25.20
2019,08,05,17,01,25.20
2019,08,05,17,02,25.20
2019,08,05,17,03,25.30
2019,08,05,17,04,25.30
2019,08,05,17,05,25.30
2019,08,05,17,06,25.40
2019,08,05,17,07,25.40
2019,08,05,17,08,25.40
2019,08,05,17,09,25.40
2019,08,05,17,10,25.50
2019,08,05,17,11,25.50
2019,08,05,17,12,25.50
2019,08,05,17,13,25.50
2019,08,05,17,14,25.50
2019,08,05,17,15,25.50
2019,08,05,17,16,25.50
2019,08,05,17,17,25.50
2019,08,05,17,18,25.50
2019,08,05,17,19,25.50
2019,08,05,17,20,25.50
2019,08,05,17,21,25.60
2019,08,05,17,22,25.60
2019,08,05,17,23,25.60
2019,08,05,17,24,25.60
2019,08,05,17,25,25.60
2019,08,05,17,26,25.60
2019,08,05,17,27,25.60
2019,08,05,17,28,25.60
2019,08,05,17,29,25.60
2019,08,05,17,30,25.60
2019,08,05,17,31,25.50
2019,08,05,17,32,25.50
2019,08,05,17,33,25.40
2019,08,05,17,34,25.30
2019,08,05,17,35,25.20
2019,08,05,17,36,25.20
2019,08,05,17,37,25.10
2019,08,05,17,38,25.00
2019,08,05,17,39,25.00
2019,08,05,17,40,25.00
2019,08,05,17,41,25.00
2019,08,05,17,42,25.00
2019,08,05,17,43,25.00
2019,08,05,17,44,25.00
2019,08,05,17,45,24.90
2019,08,05,17,46,24.80
2019,08,05,17,47,24.70
2019,08,05,17,48,24.60
2019,08,05,17,49,24.50
2019,08,05,17,50,24.40
2019,08,05,17,51,24.40
2019,08,05,17,52,24.30
2019,08,05,17,53,24.30
2019,08,05,17,54,24.30
2019,08,05,17,55,24.30
2019,08,05,17,56,24.30
2019,08,05,17,57,24.30
2019,08,05,17,59,24.40
2019,08,05,18,01,24.50
2019,08,05,18,02,24.50
2019,08,05,18,03,24.60
2019,08,05,18,04,24.70
2019,08,05,18,06,24.80
2019,08,05,18,07,24.80
2019,08,05,18,08,24.80
2019,08,05,18,09,24.90
2019,08,05,18,11,24.90
2019,08,05,18,12,24.90
2019,08,05,18,13,24.90
2019,08,05,18,14,24.80
2019,08,05,18,16,24.80
2019,08,05,18,17,24.80
2019,08,05,18,18,24.80
2019,08,05,18,19,24.80
2019,08,05,18,21,24.70
2019,08,05,18,22,24.70
2019,08,05,18,23,24.70
2019,08,05,18,24,24.70
2019,08,05,18,26,24.70
2019,08,05,18,27,24.70
2019,08,05,18,28,24.70
2019,08,05,18,29,24.60
2019,08,05,18,30,24.60